Location: Rodanthe
(35.5920°N, 75.4670°W)
Time: 04:24:07
(UTC-04:00)

Daily predictions for brighter satellites

Satellite Brightness Start Highest point End
(mag) Time Altitude Azimuth Time Altitude Azimuth Time Altitude Azimuth
Cosmos 2237 Rocket 2.7 00:06:31 10° NNW 00:11:02 57° N 00:11:02 57° N
Cosmos 2082 4.3 00:16:48 54° N 00:16:48 54° N 00:21:13 10° NNE
H-2A R/B 4.1 00:26:57 24° NNE 00:26:57 24° NNE 00:28:53 10° N
Mayak 1.0 00:25:53 10° N 00:27:37 24° N 00:27:37 24° N
Cosmos 2266 Rocket 4.2 00:27:30 10° N 00:33:02 69° N 00:33:02 69° N
CZ-4C R/B 4.0 00:42:55 10° NW 00:48:29 32° W 00:48:29 32° W
COSMOS 2455 4.0 00:50:51 34° WNW 00:51:21 35° NW 00:56:50 10° N
Cosmos 2219 Rocket 4.5 00:58:02 10° WNW 00:59:19 13° WNW 00:59:19 13° WNW
Meteor 1-24 Rocket 4.4 01:15:29 51° NNE 01:15:29 51° NNE 01:19:54 10° NNE
Meteor 2-5 Rocket 4.4 01:22:13 52° NNW 01:22:13 52° NNW 01:26:51 10° N
Cosmos 2263 Rocket 3.7 01:24:40 29° ENE 01:24:40 29° ENE 01:28:07 10° NE
SL-16 R/B 3.4 01:23:18 10° NNW 01:26:44 36° NW 01:26:44 36° NW
S3M 4.1 01:41:11 69° NNE 01:41:11 69° NNE 01:46:39 10° N
ADEOS Rocket 4.3 01:42:46 10° NNW 01:46:45 24° WNW 01:46:45 24° WNW
NOSS 3-1 (C) 3.6 01:56:13 61° NNW 01:56:13 61° NNW 02:01:43 10° NNE
Cosmos 1603 4.1 01:54:49 10° NNW 01:59:24 59° N 01:59:24 59° N
Meteor 2-13 Rocket 4.5 01:57:43 10° N 02:03:18 73° NE 02:03:18 73° NE
Cosmos 2285 Rocket 4.1 02:11:29 64° E 02:11:29 64° E 02:17:39 10° NNE
CZ-4B R/B 4.3 02:15:56 17° N 02:15:56 17° N 02:16:53 10° N
NOSS 3-1 (A) 3.5 02:16:40 66° NNW 02:16:40 66° NNW 02:22:31 10° NNE
USA 267 3.7 02:23:21 10° NE 02:29:37 46° SE 02:29:44 46° SE
CZ-2D R/B 3.1 02:24:57 10° NNE 02:29:43 36° E 02:29:47 36° E
Meteor 1-21 Rocket 4.3 02:30:51 73° NW 02:30:51 73° NW 02:36:28 10° N
Cosmos 2221 3.5 02:34:34 10° N 02:37:43 45° N 02:37:43 45° N
ARIANE 5 R/B 4.0 02:36:26 10° NE 02:40:39 26° E 02:41:23 25° ESE
Cosmos 1844 Rocket 3.6 02:47:21 35° ESE 02:48:06 37° ESE 02:53:16 10° NE
Resurs 1-4 Rocket 2.4 02:43:06 10° NNE 02:48:20 57° E 02:48:39 56° ESE
OAO 2 Rocket 3.9 02:54:01 47° E 02:54:01 47° E 02:57:37 10° E
IRS-P3 3.9 02:50:46 10° NNE 02:56:07 89° E 02:56:17 85° S
DELTA 2 R/B (1) 3.8 02:55:45 31° WNW 02:58:27 70° NNE 03:04:03 10° E
NPP 3.5 02:53:28 10° N 02:58:51 78° WNW 02:59:02 77° W
SL-16 R/B 2.5 03:00:50 43° SSE 03:03:00 79° ENE 03:09:14 10° N
Cosmos 1703 3.9 03:07:23 53° NE 03:07:23 53° NE 03:10:45 10° NNE
Cosmos 2263 Rocket 3.3 03:06:21 29° WNW 03:06:55 29° WNW 03:11:51 10° N
Cosmos 2315 Rocket 4.3 03:06:44 45° W 03:07:09 46° W 03:13:07 10° N
Cosmos 1766 Rocket 3.7 03:08:02 67° ENE 03:08:02 67° ENE 03:12:09 10° NNE
ADEOS II 4.3 03:04:32 10° NE 03:08:01 18° E 03:11:29 10° SE
SL-08 ROCKET BODY 4.4 03:03:57 10° NNW 03:09:58 63° W 03:10:39 59° SW
NOSS 2-3 (D) 3.7 03:10:35 71° NW 03:10:35 71° NW 03:15:36 10° NNE
Cosmos 1943 3.9 03:06:03 10° NW 03:10:17 38° WNW 03:10:17 38° WNW
Cosmos 921 Rocket 3.3 03:08:30 10° N 03:12:47 63° ENE 03:13:09 60° ESE
BREEZE M DEB (TANK) 3.5 03:10:48 38° WSW 03:14:03 73° NW 03:17:45 10° NE
Meteor 1-11 4.1 03:14:14 60° S 03:15:19 84° E 03:20:58 10° N
Cosmos 1269 Rocket 4.3 03:16:04 50° W 03:16:22 51° WNW 03:21:32 10° N
UNKNOWN OBJECT B 4.2 03:19:16 10° NE 03:22:32 28° E 03:23:12 27° ESE
H-2A R/B 3.0 03:22:41 10° N 03:26:46 47° WNW 03:26:46 47° WNW
Meteor 2-2 Rocket 4.1 03:22:33 10° N 03:28:19 84° W 03:30:15 43° S
Cosmos 1455 2.4 03:24:38 10° N 03:28:23 64° E 03:28:26 64° E
Cosmos 2251 Rocket 4.0 03:27:52 38° SSE 03:29:39 57° ESE 03:34:55 10° NNE
NOSS 2-3 (E) 4.4 03:30:40 40° WNW 03:31:18 43° NW 03:36:13 10° NNE
Cosmos 1408 Rocket 3.4 03:34:24 69° W 03:34:34 70° W 03:38:54 10° N
Cosmos 2058 2.9 03:34:44 66° SSE 03:35:16 80° E 03:39:30 10° N
Helios 1A Rocket 3.6 03:32:10 10° NNE 03:36:07 48° E 03:37:07 39° SE
Timation 1 Rocket 4.3 03:36:42 42° SSW 03:38:50 83° ESE 03:44:49 10° NNE
ATLAS 2AS CENTAUR R/B 3.4 03:35:04 29° S 03:39:11 59° ESE 03:47:05 10° NE
Geosat 3.9 03:34:20 10° NNE 03:39:21 75° WNW 03:40:39 50° SW
ADEOS 4.1 03:34:57 10° NNE 03:40:05 55° E 03:42:42 28° SSE
Cosmos 1151 Rocket 4.1 03:36:14 10° N 03:40:23 42° E 03:43:34 16° SE
CRYOSAT 2 4.3 03:39:49 41° S 03:41:33 89° E 03:46:28 10° N
Centaur D-1AR AC-39 4.0 03:44:56 11° SSE 03:44:56 11° SSE 03:45:02 10° SSE
Nadezhda 1 Rocket 3.9 03:45:18 37° SSW 03:47:55 72° W 03:54:13 10° N
SAR-Lupe-2 3.6 03:48:37 47° SSE 03:49:32 74° ENE 03:53:06 10° N
CZ-2D R/B 3.7 03:45:06 10° NNE 03:49:33 73° E 03:51:12 38° S
Cosmos 2074 Rocket 4.1 03:44:34 10° NNW 03:50:37 57° W 03:53:18 33° SSW
SWAS 4.4 03:46:55 10° NNW 03:51:11 64° WSW 03:52:05 49° SSW
ASTRO E2 4.2 03:51:49 24° SSE 03:51:49 24° SSE 03:54:34 10° ESE
Cosmos 1607 3.9 03:46:05 10° NW 03:52:25 69° WSW 03:58:36 10° SSE
SeaSat 1 2.3 03:51:17 27° S 03:53:57 65° WSW 03:58:52 10° NNW
OAO 1 4.4 03:52:57 34° WSW 03:55:28 82° S 04:01:00 10° E
Cosmos 2184 Rocket 4.2 03:49:57 10° NNW 03:56:09 54° W 03:59:10 30° SSW
Spot 4 Rocket 4.4 03:53:26 10° N 03:58:23 49° WNW 04:00:05 35° WSW
Cosmos 2154 Rocket 4.0 03:52:18 10° N 03:58:38 87° E 04:04:37 12° S
Meteor 1-27 4.4 03:59:46 10° NNW 04:05:17 52° W 04:08:15 27° SSW
Cosmos 1743 Rocket 3.5 04:04:18 39° SSW 04:05:45 65° W 04:10:02 10° N
Cosmos 2151 3.3 04:07:27 38° SW 04:08:37 49° W 04:12:48 10° N
CZ-2D R/B 3.4 04:05:28 10° NNW 04:09:33 24° WNW 04:11:07 21° W
USA 267 3.9 04:06:22 10° NNE 04:12:32 46° NW 04:17:05 18° WSW
Cosmos 1932 4.3 04:08:33 10° NNW 04:14:47 80° WSW 04:20:56 10° SSE
ARIANE 5 R/B 3.5 04:15:19 10° N 04:19:42 30° WNW 04:21:43 23° WSW
Cosmos 405 Rocket 2.7 04:16:19 10° N 04:20:09 79° E 04:23:51 10° SSE
ATLAS 3B R/B 4.5 04:17:16 10° NNW 04:23:08 33° NE 04:28:57 10° ESE
BREEZE-M R/B 4.5 04:22:49 24° SW 04:23:12 25° SW 04:29:04 10° SSE
BREEZE-M DEB (TANK) 4.1 04:19:24 15° WSW 04:25:30 48° NNW 04:28:49 10° NE
Meteor 2-10 Rocket 3.4 04:21:05 10° N 04:26:09 88° W 04:31:09 10° S
Resurs 1-4 Rocket 3.9 04:24:29 10° NNW 04:27:39 16° WNW 04:29:44 13° W
H-II Stage 2 4.0 04:24:03 21° WSW 04:27:50 50° S 04:59:42 10° ESE
Cosmos 1844 Rocket 3.9 04:29:00 18° WSW 04:32:00 27° WNW 04:36:48 10° N
CZ-4B R/B 4.4 04:31:39 10° NE 04:34:49 29° E 04:38:03 10° SSE
OAO 2 Rocket 3.2 04:32:58 13° W 04:37:26 82° S 04:42:22 10° E
Cosmos 1500 Rocket 4.5 04:39:18 20° SW 04:41:36 31° WNW 04:45:35 10° NNW
Cosmos 2278 Rocket 2.2 04:37:33 16° SSW 04:42:06 72° WNW 04:47:47 10° NNE
SL-19 R/B 3.6 04:39:29 12° S 04:42:07 51° WSW 04:44:54 10° NNW
Cosmos 1441 Rocket 3.8 04:39:41 10° NNW 04:43:23 38° W 04:46:27 13° SSW
USA 234 4.4 04:37:31 10° ESE 04:43:41 47° NE 04:49:52 10° NNW
DELTA 2 R/B (1) 3.8 04:39:28 10° WNW 04:44:51 50° SSW 04:50:15 10° SE
SL-24 DEB 4.5 04:42:22 10° S 04:47:00 51° W 04:51:39 10° NNW
SL-16 R/B 4.2 04:45:56 13° WSW 04:47:10 13° W 04:49:58 10° WNW
ADEOS II 2.5 04:42:54 10° N 04:47:56 48° WNW 04:52:26 13° SW
Cosmos 1833 Rocket 4.5 04:47:27 10° N 04:52:36 36° ENE 04:57:42 10° SE
Cosmos 1892 3.1 04:48:46 10° S 04:52:36 67° E 04:56:26 10° NNE
Cosmos 2228 Rocket 4.3 04:50:38 10° NNW 04:54:24 26° W 04:57:42 12° SW
USA 238 DEB 4.0 04:56:52 10° NNW 05:04:02 79° ENE 05:11:17 10° SE
USA 238 4.1 04:56:58 10° NNW 05:04:09 78° ENE 05:11:24 10° SE
Lacrosse 5 2.7 05:00:30 10° SSW 05:05:20 46° SE 05:10:11 10° NE
Cosmos 1666 Rocket 3.6 05:02:17 10° S 05:06:45 88° W 05:11:12 10° N
Cosmos 1633 Rocket 3.3 05:02:37 10° S 05:06:56 75° E 05:11:17 10° N
GP-B 4.2 05:07:03 10° NNW 05:10:46 27° W 05:14:29 10° SW
PSLV R/B 3.8 05:10:11 10° N 05:14:20 50° WNW 05:18:29 10° SSW
Cosmos 724 4.4 05:10:34 10° NW 05:16:32 68° WSW 05:22:34 10° SSE
PSLV R/B 3.7 05:12:53 10° N 05:16:41 78° WNW 05:20:31 10° SSW
COSMOS 2406 4.1 05:12:38 10° NW 05:17:31 29° WSW 05:22:23 10° SSW
Meteor 1-31 Rocket 3.5 05:15:17 10° NNE 05:19:01 55° E 05:22:46 10° S
SL-8 Rocket 4.3 05:15:08 10° NNW 05:20:59 46° W 05:26:50 10° SSW
Okean O Rocket 2.1 05:16:38 10° NNE 05:21:00 64° ESE 05:25:21 10° S
APEX 2.4 05:19:37 10° NNW 05:22:17 56° WSW 05:25:11 10° S
NOSS 2-2 (C) 4.0 05:19:07 10° SSW 05:22:49 52° ESE 05:26:47 10° NE
Nadezhda 3 Rocket 4.4 05:17:07 10° S 05:23:22 73° E 05:29:42 10° N
PAYLOAD B 4.5 05:19:57 10° NNE 05:25:31 76° ESE 05:31:01 10° S
